Waarnemingen

Advertentie
Mijn weer
Dax, Frankrijk (7603): temperatuur & dauwpunt: 11.02.2019 13:00:00 - 17.02.2019 13:00:00 (CET)Dax, Frankrijk (7603): temperatuur 5cm: 11.02.2019 13:00:00 - 17.02.2019 13:00:00 (CET)Dax, Frankrijk (7603): temperatuur -20cm & temperatuur -100cm: 11.02.2019 13:00:00 - 17.02.2019 13:00:00 (CET)Dax, Frankrijk (7603): windsnelheid & windstoten: 11.02.2019 13:00:00 - 17.02.2019 13:00:00 (CET)Dax, Frankrijk (7603): windrichting: 11.02.2019 13:00:00 - 17.02.2019 13:00:00 (CET)Dax, Frankrijk (7603): luchtdruk: 11.02.2019 13:00:00 - 17.02.2019 13:00:00 (CET)Dax, Frankrijk (7603): zicht: 11.02.2019 13:00:00 - 17.02.2019 13:00:00 (CET)Dax, Frankrijk (7603): Zonneschijnduur: 11.02.2019 13:00:00 - 17.02.2019 13:00:00 (CET)Dax, Frankrijk (7603): neerslag: 11.02.2019 13:00:00 - 17.02.2019 13:00:00 (CET)
Datum & Tijd tt [°C] td [°C] tt 5cm [°C] tt -20cm [°C] tt -100cm [°C] ff [km/u] ff [kn] fx [km/u] fx [kn] dd ppp [hPa] vv [km] sd [min] rr [mm]
17.02.2019 13:00:00 15,0 6,0 16,4 8,8 10,7 10 5 16 8 NO 1020,7 15 60 0,0
17.02.2019 12:00:00 11,9 5,7 12,9 8,8 10,8 9 5 15 8 NO 1021,4 14 60 0,0
17.02.2019 11:00:00 8,9 4,7 8,9 8,8 10,8 8 5 13 7 ONO 1021,5 13 60 0,0
17.02.2019 10:00:00 5,7 3,7 5,7 8,8 10,7 8 4 15 8 ONO 1021,7 9 60 0,0
17.02.2019 09:00:00 3,4 2,7 0,8 8,9 10,8 8 5 14 8 NO 1021,6 6 38 0,0
17.02.2019 08:00:00 1,9 1,2 0,5 9,0 10,8 7 4 14 7 ONO 1021,3 4,2 0 0,0
17.02.2019 07:00:00 2,4 1,2 1,3 9,1 10,8 9 5 21 11 O 1021,1 10 0 0,0
17.02.2019 06:00:00 2,9 2,2 1,3 9,2 10,8 11 6 16 9 OZO 1021,3 10 0 0,0
17.02.2019 05:00:00 3,5 2,6 1,5 9,3 10,7 8 4 16 9 O 1021,2 9 0 0,0
17.02.2019 04:00:00 3,8 3,1 0,0 9,4 10,8 4 2 10 6 ONO 1021,3 8 0 0,0
17.02.2019 03:00:00 4,0 3,3 1,2 9,5 10,8 5 3 9 5 ONO 1021,8 8 0 0,0
17.02.2019 02:00:00 3,6 2,1 1,3 9,6 10,8 4 2 10 5 ONO 1021,9 10 0 0,0
17.02.2019 01:00:00 3,5 2,0 1,6 9,7 10,8 8 4 10 5 OZO 1022,1 11 0 0,0
17.02.2019 00:00:00 7,6 4,5 4,7 9,8 10,8 4 2 10 6 NO 1022,0 10 0 0,0
16.02.2019 23:00:00 7,8 4,2 5,9 9,8 10,8 6 3 9 5 NNO 1022,2 7 0 0,0
16.02.2019 22:00:00 10,3 4,0 7,5 9,9 10,8 3 2 7 4 ONO 1022,2 14 0 0,0
16.02.2019 21:00:00 10,7 4,4 8,4 9,8 10,8 4 2 13 7 NNW 1022,4 9 0 0,0
16.02.2019 20:00:00 13,4 4,5 9,4 9,8 10,8 8 4 15 8 O 1022,5 22 0 0,0
16.02.2019 19:00:00 14,3 4,3 11,0 9,7 10,8 10 5 19 10 O 1022,5 26 12 0,0
16.02.2019 18:00:00 17,1 4,4 16,4 9,6 10,8 12 6 19 10 O 1022,4 28 48 0,0
16.02.2019 17:00:00 19,5 4,8 20,5 9,4 10,8 11 6 19 10 O 1022,8 22 60 0,0
16.02.2019 16:00:00 20,2 2,1 21,9 9,1 10,8 12 6 17 9 O 1023,3 20 60 0,0
16.02.2019 15:00:00 20,1 1,5 21,7 8,9 10,8 10 5 18 10 O 1024,3 21 60 0,0
16.02.2019 14:00:00 19,2 2,5 20,7 8,7 10,8 6 4 16 9 ZO 1025,1 14 60 0,0
16.02.2019 13:00:00 17,6 3,5 18,3 8,6 10,8 10 5 17 9 OZO 1026,1 14 60 0,0
16.02.2019 12:00:00 13,4 4,8 15,1 8,6 10,8 0 0 7 4 N 1027,2 9 60 0,0
16.02.2019 11:00:00 8,7 2,9 7,8 8,6 10,8 2 1 6 3 N 1027,4 8 60 0,0
16.02.2019 10:00:00 5,2 1,9 4,1 8,7 10,8 4 2 6 3 OZO 1027,5 10 60 0,0
16.02.2019 09:00:00 1,7 0,7 -1,4 8,8 10,7 3 1 6 3 ONO 1027,6 5 36 0,0
16.02.2019 08:00:00 0,6 -0,3 -1,2 8,9 10,8 4 2 7 4 ONO 1027,2 6 0 0,0
16.02.2019 07:00:00 1,2 0,2 -0,9 9,0 10,8 5 3 7 4 O 1027,0 13 0 0,0
16.02.2019 06:00:00 0,6 -0,3 -0,5 9,1 10,8 3 2 7 4 OZO 1027,3 6 0 0,0
16.02.2019 05:00:00 1,9 1,0 0,2 9,3 10,8 3 2 9 5 NNO 1026,9 7 0 0,0
16.02.2019 04:00:00 1,6 0,9 0,0 9,4 10,8 4 2 6 3 N 1027,1 8 0 0,0
16.02.2019 03:00:00 2,4 1,2 1,6 9,5 10,8 0 0 4 2 N 1027,4 8 0 0,0
16.02.2019 02:00:00 3,1 2,2 1,4 9,6 10,8 0 0 5 3 N 1027,1 7 0 0,0
16.02.2019 01:00:00 3,6 2,0 2,3 9,7 10,8 2 1 5 3 N 1027,0 11 0 0,0
16.02.2019 00:00:00 4,8 2,0 3,2 9,8 10,8 0 0 3 1 N 1026,9 5 0 0,0
15.02.2019 23:00:00 6,0 3,0 4,6 9,8 10,8 2 1 3 2 ZZO 1027,0 7 0 0,0
15.02.2019 22:00:00 7,9 3,2 6,1 9,9 10,8 0 0 6 3 N 1026,6 8 0 0,0
15.02.2019 21:00:00 9,8 3,1 7,9 9,9 10,8 2 1 8 4 ONO 1026,4 9 0 0,0
15.02.2019 20:00:00 11,6 2,6 9,8 9,9 10,8 6 3 8 4 O 1026,3 11 0 0,0
15.02.2019 19:00:00 14,4 2,6 12,5 9,8 10,8 5 3 7 4 ZO 1026,1 19 11 0,0
15.02.2019 18:00:00 17,3 3,2 16,1 9,6 10,8 5 3 11 6 OZO 1025,6 15 43 0,0
15.02.2019 17:00:00 19,3 1,7 20,6 9,4 10,8 7 4 10 6 O 1025,5 24 60 0,0
15.02.2019 16:00:00 19,5 -2,2 23,2 9,2 10,8 4 2 11 6 NO 1025,5 28 60 0,0
15.02.2019 15:00:00 18,8 2,2 22,0 9,0 10,8 5 3 11 6 NNO 1025,8 10 60 0,0
15.02.2019 14:00:00 16,9 3,6 19,8 8,8 10,8 6 4 12 7 NO 1026,2 10 60 0,0
15.02.2019 13:00:00 14,4 5,7 16,2 8,7 10,8 6 3 12 7 ONO 1026,9 14 60 0,0
15.02.2019 12:00:00 9,8 6,1 10,7 8,7 10,8 3 1 11 6 NO 1027,5 10 60 0,0
15.02.2019 11:00:00 5,5 5,4 4,6 8,7 10,8 6 3 10 5 ONO 1027,4 4,0 48 0,0
15.02.2019 10:00:00 3,1 3,0 2,1 8,8 10,8 4 2 10 5 NO 1027,5 0,7 26 0,0
15.02.2019 09:00:00 1,7 1,6 0,2 8,8 10,8 4 2 8 4 NO 1027,3 - 20 0,0
15.02.2019 08:00:00 1,6 1,5 0,6 8,9 10,8 3 2 8 4 NO 1026,9 - 0 0,0
15.02.2019 07:00:00 2,3 2,2 1,3 9,0 10,8 4 2 11 6 - 1026,7 0,1 0 0,0
15.02.2019 06:00:00 2,5 2,2 0,9 9,1 10,8 3 1 7 4 O 1026,4 0,1 0 0,0
15.02.2019 05:00:00 3,3 3,0 1,3 9,2 10,8 3 2 9 5 O 1026,1 0,1 0 0,0
15.02.2019 04:00:00 3,9 3,6 1,7 9,3 10,8 6 3 13 7 O 1026,1 1,8 0 0,0
15.02.2019 03:00:00 4,5 4,1 2,1 9,4 10,8 6 3 10 5 O 1026,4 3,1 0 0,0
15.02.2019 02:00:00 5,4 4,7 3,2 9,5 10,8 4 2 11 6 ONO 1026,6 6 0 0,0
15.02.2019 01:00:00 6,0 5,0 3,6 9,5 10,8 7 4 11 6 ONO 1026,8 9 0 0,0
15.02.2019 00:00:00 6,7 5,5 4,4 9,6 10,8 4 2 10 5 ONO 1026,9 11 0 0,0
14.02.2019 23:00:00 7,6 4,4 5,5 9,6 10,8 5 3 10 6 O 1027,1 13 0 0,0
14.02.2019 22:00:00 10,2 5,6 7,5 9,7 10,8 6 3 14 8 NO 1027,1 13 0 0,0
14.02.2019 21:00:00 11,8 5,4 8,8 9,7 10,8 7 4 12 7 ONO 1027,0 14 0 0,0
14.02.2019 20:00:00 12,7 5,4 10,1 9,6 10,8 10 6 18 10 ONO 1027,1 22 0 0,0
14.02.2019 19:00:00 13,8 4,9 12,1 9,6 10,9 12 7 21 12 O 1026,9 26 10 0,0
14.02.2019 18:00:00 16,5 5,1 16,1 9,4 10,9 12 6 21 12 O 1026,7 31 60 0,0
14.02.2019 17:00:00 18,0 4,2 19,1 9,2 10,8 14 8 25 13 O 1026,8 30 60 0,0
14.02.2019 16:00:00 18,5 3,5 20,5 9,0 10,8 14 8 22 12 O 1027,0 30 60 0,0
14.02.2019 15:00:00 18,2 2,5 20,0 8,8 10,8 16 8 22 12 O 1027,3 22 60 0,0
14.02.2019 14:00:00 16,7 4,7 - 8,7 10,8 12 7 - - ONO 1028,1 10 - -
14.02.2019 13:00:00 14,5 4,5 15,2 8,6 10,8 9 5 17 9 ONO 1029,1 30 60 0,0
14.02.2019 12:00:00 11,3 5,0 11,7 8,5 10,8 9 5 14 8 ONO 1029,9 30 60 0,0
14.02.2019 11:00:00 8,2 3,4 8,0 8,6 10,8 8 4 15 8 ONO 1030,1 30 60 0,0
14.02.2019 10:00:00 4,9 2,6 4,5 8,7 10,8 8 5 12 7 ONO 1030,1 30 60 0,0
14.02.2019 09:00:00 2,6 1,4 0,6 8,7 10,8 7 4 11 6 ONO 1030,0 30 33 0,0
14.02.2019 08:00:00 1,4 0,8 -0,5 8,8 10,9 8 4 11 6 ONO 1029,7 30 0 0,0
14.02.2019 07:00:00 1,5 0,6 -0,3 8,9 10,9 4 2 9 5 ONO 1029,5 8 0 0,0
14.02.2019 06:00:00 1,6 0,6 0,3 9,0 10,9 6 3 11 6 ONO 1029,6 10 0 0,0
14.02.2019 05:00:00 2,1 1,1 0,5 9,1 10,9 7 4 10 5 O 1029,6 13 0 0,0
14.02.2019 04:00:00 2,5 1,0 0,9 9,2 10,9 6 4 11 6 ONO 1029,7 16 0 0,0
14.02.2019 03:00:00 3,1 1,3 1,9 9,3 10,9 9 5 12 7 ONO 1030,1 13 0 0,0
14.02.2019 02:00:00 4,2 1,7 2,5 9,4 10,9 6 4 10 5 ONO 1030,1 15 0 0,0
14.02.2019 01:00:00 5,5 2,3 2,9 9,5 10,9 6 3 9 5 NO 1030,2 20 0 0,0
14.02.2019 00:00:00 6,1 2,0 4,2 9,5 10,9 5 3 9 5 ONO 1030,1 12 0 0,0
13.02.2019 23:00:00 7,6 2,3 5,3 9,6 10,9 5 3 8 5 ONO 1030,1 17 0 0,0
13.02.2019 22:00:00 8,8 1,9 5,5 9,6 10,9 4 2 13 7 O 1029,8 17 0 0,0
13.02.2019 21:00:00 10,2 1,6 7,2 9,6 10,9 9 5 13 7 ONO 1029,7 28 0 0,0
13.02.2019 20:00:00 10,5 1,3 7,5 9,6 10,9 10 5 14 8 O 1029,7 30 0 0,0
13.02.2019 19:00:00 12,2 1,5 9,7 9,5 10,9 10 5 16 9 ONO 1029,4 30 8 0,0
13.02.2019 18:00:00 14,8 1,0 14,2 9,4 10,9 9 5 20 11 O 1029,3 31 60 0,0
13.02.2019 17:00:00 16,0 1,3 17,9 9,2 10,9 12 6 19 11 O 1029,0 40 60 0,0
13.02.2019 16:00:00 15,8 0,7 18,8 9,0 10,9 10 5 19 11 ONO 1029,1 21 60 0,0
13.02.2019 15:00:00 15,0 2,2 18,3 8,8 10,9 11 6 18 10 NO 1029,4 23 60 0,0
13.02.2019 14:00:00 14,1 3,2 16,7 8,7 10,9 8 4 17 9 NO 1029,9 40 60 0,0
13.02.2019 13:00:00 12,4 3,3 14,0 8,6 10,9 8 4 18 10 ONO 1030,6 19 60 0,0
13.02.2019 12:00:00 9,5 4,1 9,9 8,6 10,9 5 3 13 7 ONO 1031,0 13 60 0,0
13.02.2019 11:00:00 6,3 3,3 6,6 8,6 10,9 5 3 11 6 O 1031,3 10 60 0,0
13.02.2019 10:00:00 2,6 1,3 2,4 8,7 10,9 4 2 11 6 ONO 1031,5 8 60 0,0
13.02.2019 09:00:00 0,2 -0,4 -2,5 8,8 10,9 10 5 14 8 NO 1031,6 4,6 32 0,0
13.02.2019 08:00:00 -0,5 -1,1 -2,7 8,9 10,9 4 2 7 4 ONO 1031,5 4,8 0 0,0
13.02.2019 07:00:00 0,2 -0,4 -1,7 9,0 10,9 2 1 9 5 NO 1031,5 8 0 0,0
13.02.2019 06:00:00 0,7 0,1 -1,3 9,2 10,9 5 3 8 5 ONO 1031,6 6 0 0,0
13.02.2019 05:00:00 1,1 0,2 -0,2 9,2 10,9 4 2 11 6 NO 1031,6 9 0 0,0
13.02.2019 04:00:00 2,1 1,1 0,3 9,4 10,9 7 4 13 7 NO 1031,9 10 0 0,0
13.02.2019 03:00:00 2,9 1,4 1,2 9,4 10,9 5 3 13 7 NO 1032,2 11 0 0,0
13.02.2019 02:00:00 4,1 2,0 1,7 9,5 10,9 7 4 9 5 NO 1032,4 8 0 0,0
13.02.2019 01:00:00 3,9 0,9 1,9 9,5 10,9 2 1 9 5 O 1032,9 9 0 0,0
13.02.2019 00:00:00 5,7 2,2 3,0 9,6 10,9 7 4 13 7 NO 1033,0 14 0 0,0
12.02.2019 23:00:00 6,2 2,3 4,8 9,7 10,9 9 5 20 11 ONO 1033,4 14 0 0,0
12.02.2019 22:00:00 7,1 2,8 6,2 9,7 10,9 12 7 18 10 NO 1033,5 14 0 0,0
12.02.2019 21:00:00 8,8 2,8 5,6 9,8 10,9 5 3 13 7 NO 1033,3 14 0 0,0
12.02.2019 20:00:00 9,0 2,5 5,8 9,8 10,9 8 5 13 7 O 1033,3 17 0 0,0
12.02.2019 19:00:00 10,4 3,4 7,2 9,7 10,9 8 4 16 8 O 1032,9 16 7 0,0
12.02.2019 18:00:00 12,0 3,7 11,6 9,6 10,9 13 7 23 13 O 1032,8 18 60 0,0
12.02.2019 17:00:00 12,8 3,7 14,0 9,5 10,9 17 9 27 14 OZO 1032,9 10 60 0,0
12.02.2019 16:00:00 13,1 3,7 15,3 9,3 10,9 16 9 26 14 ONO 1033,3 10 60 0,0
12.02.2019 15:00:00 12,7 3,9 13,4 9,2 10,9 16 9 25 13 O 1033,5 10 57 0,0
12.02.2019 14:00:00 12,1 3,8 11,1 9,1 10,9 16 8 24 13 ONO 1034,1 15 22 0,0
12.02.2019 13:00:00 10,3 5,7 12,5 9,0 10,9 7 4 13 7 NO 1034,9 8 49 0,0
12.02.2019 12:00:00 8,8 5,7 11,1 9,0 10,9 6 3 11 6 NNO 1035,6 6 60 0,0
12.02.2019 11:00:00 6,0 4,8 5,2 9,0 10,9 3 1 7 4 NO 1035,7 3,0 60 0,0
12.02.2019 10:00:00 2,9 2,8 0,1 9,1 10,9 4 2 7 4 O 1036,0 1,1 56 0,0
12.02.2019 09:00:00 0,5 0,2 -0,3 9,2 10,9 0 0 8 4 N 1035,8 0,2 6 0,0
12.02.2019 08:00:00 0,6 0,3 -0,6 9,3 10,9 2 1 6 3 O 1035,4 - 0 0,0
12.02.2019 07:00:00 0,8 0,5 -1,0 9,4 10,9 0 0 4 2 N 1035,2 - 0 0,0
12.02.2019 06:00:00 0,7 0,3 -0,6 9,6 10,9 4 2 6 3 NW 1034,8 10 0 0,0
12.02.2019 05:00:00 1,4 0,8 -0,1 9,7 10,9 0 0 4 2 N 1034,5 6 0 0,0
12.02.2019 04:00:00 2,8 2,5 -0,1 9,8 10,9 3 2 8 4 ONO 1034,3 1,4 0 0,0
12.02.2019 03:00:00 2,7 2,1 1,1 9,9 10,9 0 0 3 2 N 1034,7 7 0 0,0
12.02.2019 02:00:00 3,4 2,7 2,2 9,9 10,9 0 0 4 2 N 1034,8 5 0 0,0
12.02.2019 01:00:00 4,4 3,7 3,4 10,0 10,9 4 2 8 4 OZO 1035,0 7 0 0,0
12.02.2019 00:00:00 4,9 4,0 3,8 10,1 10,9 4 2 5 3 OZO 1035,0 7 0 0,0
11.02.2019 23:00:00 5,9 5,0 4,0 10,2 10,9 4 2 5 3 ZZW 1034,8 7 0 0,0
11.02.2019 22:00:00 5,6 4,1 3,6 10,3 10,9 2 1 4 2 ZO 1034,7 6 0 0,0
11.02.2019 21:00:00 7,1 4,9 6,2 10,3 10,9 3 2 6 3 WNW 1034,3 9 0 0,0
11.02.2019 20:00:00 8,6 5,2 7,4 10,3 10,9 4 2 7 4 W 1033,7 9 0 0,0
11.02.2019 19:00:00 9,2 4,6 8,0 10,2 10,9 3 2 11 6 WNW 1033,2 10 4 0,0
11.02.2019 18:00:00 11,0 4,7 10,9 10,1 10,9 7 4 21 12 WNW 1032,6 13 34 0,0
11.02.2019 17:00:00 12,5 4,2 13,5 10,0 10,9 10 5 27 15 NW 1032,1 15 47 0,0
11.02.2019 16:00:00 13,0 3,6 13,8 9,9 10,9 19 10 30 16 N 1031,6 21 58 0,0
11.02.2019 15:00:00 12,6 6,2 9,8 9,7 10,9 11 6 32 17 NW 1031,3 18 24 0,2
11.02.2019 14:00:00 12,5 4,7 12,4 9,7 10,9 12 7 24 13 NW 1031,2 10 20 0,0
11.02.2019 13:00:00 12,0 5,6 13,2 9,6 10,9 13 7 32 17 NNW 1031,4 10 37 0,0

tt = temperatuur
td = dauwpunt
tt 5cm = temperatuur 5cm
tt -20cm = temperatuur -20cm
tt -100cm = temperatuur -100cm
ff = windsnelheid
fx = windstoten
dd = windrichting
ppp = luchtdruk
vv = zicht
sd = Zonneschijnduur
rr = neerslag

Weerstations in de omgeving